Location: Newark
(43.4306°N, 0.3089°E)
Time: 09:17:24
(UTC+00:00)

Vanguard 3 - Pass Details

Date: 25 August 2019
Orbit: 508 x 3262 km, 33.3° (Epoch: 21 October)

Event Time Altitude Azimuth Distance (km) Brightness Sun altitude
Rises 14:54:07 0° 221° (SW) 5,961 12.3 40.3°
Reaches altitude 10° 14:59:37 10° 210° (SSW) 4,423 11.8 39.4°
Maximum altitude 15:07:41 23° 164° (SSE) 2,654 10.1 38.1°
Drops below altitude 10° 15:13:10 10° 115° (ESE) 2,892 9.7 37.2°
Sets 15:15:53 0° 99° (E) 3,529 10.0 36.7°
